Regional Weather Roundup
Issued by NWS Upton, NY

Current Version | Previous Version | Text Only | Print | Product List | Glossary Off
Versions: 1 2 3 4 5 6 7 8 9 10 11 12 13 14 15 16 17 18 19 20 21 22 23 24 25 26 27 28 29 30 31 32 33 34 35 36 37 38 39 40 41 42 43 44 45 46 47 48 49 50
000 ASUS41 KOKX 161408 RWROKX REGIONAL WEATHER ROUNDUP NATIONAL WEATHER SERVICE NEW YORK NY 1000 AM EDT WED AUG 16 2017 NOTE: "FAIR" INDICATES FEW OR NO CLOUDS BELOW 12,000 FEET WITH NO SIGNIFICANT WEATHER AND/OR OBSTRUCTIONS TO VISIBILITY. NYZ071-072-176-178-NJZ106-104-161500- NEW YORK CITY METRO AREA CITY SKY/WX TMP DP RH WIND PRES REMARKS Central Park SUNNY 75 65 70 VRB3 29.99S Bronx Bot Gard N/A 77 64 65 W2 29.97F LaGuardia APRT MOSUNNY 77 66 68 N10 29.96R Kennedy INTL MOSUNNY 80 69 69 NW7 29.97R Breezy Point N/A 77 N/A N/A W3 N/A Newark/Liberty MOSUNNY 79 63 57 N12 29.96S Teterboro SUNNY 80 64 58 N8 29.95S $$ NYZ177-179-078>081-161500- LONG ISLAND NEW YORK CITY SKY/WX TMP DP RH WIND PRES REMARKS Jones Beach N/A 75 N/A N/A N6 N/A Matinecock PT N/A 73 N/A N/A SW2 N/A Farmingdale SUNNY 77 65 66 N7 29.96R MacArthur/ISP MOSUNNY 78 66 66 N13 29.95R Shirley SUNNY 79 67 66 N9 29.95R Mt Sinai Harb N/A 77 N/A N/A NW1G7 N/A Westhampton SUNNY 78 65 63 N12 29.95S East Hampton FAIR 76 67 72 N7 29.93S Montauk N/A 74 69 85 NW9 29.94R $$ NYZ052-065-067-161500- HUDSON VALLEY CITY SKY/WX TMP DP RH WIND PRES REMARKS White Plains SUNNY 77 64 64 N10 29.97R Larchmont Harb N/A 75 N/A N/A N10 N/A Croton On Huds N/A 81 N/A N/A NW5G10 N/A Newburgh SUNNY 70 66 88 CALM 30.01R Montgomery SUNNY 76 66 71 CALM 29.99R Poughkeepsie MOSUNNY 74 64 71 N7 29.98S Albany PTSUNNY 74 63 68 NW7 29.99S $$ NJZ001-105-106-008-010-013-015-019>022-104-161500- NEW JERSEY CITY SKY/WX TMP DP RH WIND PRES REMARKS Newark/Liberty MOSUNNY 79 63 57 N12 29.96S Teterboro SUNNY 80 64 58 N8 29.95S Caldwell SUNNY 77 66 68 VRB5 29.98S Somerville SUNNY 79 67 66 N6 29.96S Linden FAIR 77 63 62 N6 29.97S Perth Amboy N/A 75 N/A N/A N8 N/A Sussex SUNNY 75 65 70 N8 30.01R Andover N/A 74 65 73 VRB5 30.01S Trenton MOSUNNY 77 69 76 N6 29.98R Millville MOSUNNY 79 74 84 W5 29.98S Atlantic City MOSUNNY 79 72 79 NW9 29.97S Wrightstown SUNNY 75 70 83 N6 29.96R Toms River SUNNY 75 69 81 N6 29.98S Belmar SUNNY 78 68 71 NW10 29.98S $$ PAZ047>061-062-071-161500- EASTERN PENNSYLVANIA CITY SKY/WX TMP DP RH WIND PRES REMARKS Philadelphia PTSUNNY 80 70 71 NW7 29.98S Allentown SUNNY 71 67 87 CALM 30.00S Scranton CLOUDY 69 65 86 CALM 30.05S FOG $$ CTZ002-004>006-009-010-012-RIZ004-006-007-MAZ004-011-015-161500- SOUTHERN NEW ENGLAND IN CT CITY SKY/WX TMP DP RH WIND PRES REMARKS Bradley INTL MOSUNNY 77 65 66 VRB5 29.95S Hartford SUNNY 78 65 63 N10 29.94S Danbury SUNNY 76 65 68 W7 29.98S Wtrbury/Oxford MOSUNNY 74 64 71 NW9 29.98S Norwalk Harbor N/A 75 N/A N/A NW6 N/A Bridgeport SUNNY 78 64 61 N9 29.95R Meriden SUNNY 76 64 66 N8 29.94F New Haven SUNNY 78 64 61 NW9 29.94S Chester NOT AVBL Groton SUNNY 78 66 66 N12 29.92S Wilimantic SUNNY 78 64 61 NW12 29.94S IN RI CITY SKY/WX TMP DP RH WIND PRES REMARKS Providence MOSUNNY 79 67 66 N14 29.93R Block Island SUNNY 74 69 85 VRB7 29.93S Westerly SUNNY 78 67 68 NW9 29.93S IN MA CITY SKY/WX TMP DP RH WIND PRES REMARKS Boston MOSUNNY 78 61 55 NW12 29.93R Worcester MOSUNNY 73 59 61 NW12 29.97S Westfield SUNNY 78 64 61 NW8 29.95S Provincetown SUNNY 74 66 76 NW13 29.91S Nantucket MOSUNNY 75 70 84 N12 29.89F $$ ANZ330-335-338-340-345-350-353-355-161500- COASTAL MARINE OBSERVATIONS STATION/POSITION TIME SKY/WX TEMP WIND PRES VSBY WAVE AIR SEA DIR/SP/G HT/PER (UTC) (F) (DEG/KT/KT) (MB) (MI) (FT/S) NY HARB ENTRANCE 1250 72 75 310/ 12/ 14 1013.9 5/12 GREAT SOUTH BAY 1330 75 77 340/ 8/ 10 N/A 23 SSW MONTAUK P 1250 71 71 1013.6 5/12 15 E BARNEGAT LI 1330 76 N/A 5/11 HUDSON CANYON 1250 74 74 340/ 12/ 16 1013.0 6/14 KINGS POINT 1330 74 73 60/ 4/ 5 1014.3 EXECUTION ROCKS NOT AVBL WESTERN LI SOUND NOT AVBL CENTRAL LI SOUND NOT AVBL EASTERN LI SOUND NOT AVBL ROBBINS REEF 1330 350/ 8/ 11 1015.1 $$ >>>>>>>>>>>>>>>>>>>>>>>>>>>> KEY <<<<<<<<<<<<<<<<<<<<<<<<<<< > < > SKY/WX - Sky Condition/Present Weather < > TMP - Temperature in Fahrenheit < > DP - Dew Point in Fahrenheit < > RH - Relative Humidity in Percent < > WIND - Direction (from) and Speed in MPH < > PRES - Mean Sea Level Pressure (inches of Hg) < > WCI - Wind Chill Index < > VSB - VISIBILITY IN MILES < > HX - HEAT INDEX < > TC - TEMPERATURE IN CELSIUS < > VRB - VARIABLE WIND DIRECTION < > < >>>>>>>>>>>>>>>>>>>>>>>>>>>> KEY <<<<<<<<<<<<<<<<<<<<<<<<<<<

USA.gov is the U.S. government's official web portal to all federal, state and local government web resources and services.